GW6868 Weather Reports


Display with metric or nautical units.
time (UTC)temp
F
wind
direction
speed
MPH
gust
MPH
rain 1hr
in
rain 24hr
in
rain mn
in
humidity
%
barometer
mb
20260503221613 89 107 2.0 2.0 0.00 0.00 0.00 24 1009.1
20260503221110 90 114 2.0 2.0 0.00 0.00 0.00 23 1009.3
20260503220607 90 103 4.0 6.0 0.00 0.00 0.00 24 1009.3
20260503220104 89 112 2.0 2.0 0.00 0.00 0.00 24 1009.4
20260503215601 89 126 7.0 9.0 0.00 0.00 0.00 23 1009.5
20260503215057 89 158 1.0 1.0 0.00 0.00 0.00 23 1009.5
20260503214556 90 116 3.0 4.0 0.00 0.00 0.00 26 1009.7
20260503214052 89 119 6.0 7.0 0.00 0.00 0.00 24 1009.6
20260503213551 89 162 4.0 6.0 0.00 0.00 0.00 24 1009.7
20260503213047 90 104 1.0 1.0 0.00 0.00 0.00 25 1009.8
20260503212544 89 107 0.0 1.0 0.00 0.00 0.00 28 1009.9
20260503212042 88 110 4.0 7.0 0.00 0.00 0.00 25 1010.0
20260503211539 89 111 0.0 1.0 0.00 0.00 0.00 25 1009.9
20260503211034 89 113 1.0 1.0 0.00 0.00 0.00 27 1010.0
20260503210531 88 111 0.0 0.0 0.00 0.00 0.00 28 1010.2
20260503210027 89 108 2.0 3.0 0.00 0.00 0.00 26 1010.2
20260503205524 90 115 2.0 3.0 0.00 0.00 0.00 28 1010.2
20260503205020 89 85 1.0 2.0 0.00 0.00 0.00 26 1010.2
20260503204517 89 157 3.0 3.0 0.00 0.00 0.00 26 1010.4
20260503204014 90 102 8.0 10.0 0.00 0.00 0.00 27 1010.4
20260503203511 89 107 1.0 1.0 0.00 0.00 0.00 27 1010.4
20260503203008 89 182 1.0 2.0 0.00 0.00 0.00 27 1010.7
20260503202506 89 144 2.0 3.0 0.00 0.00 0.00 27 1010.7
20260503202004 88 126 1.0 1.0 0.00 0.00 0.00 27 1010.8
20260503201501 87 22 2.0 4.0 0.00 0.00 0.00 27 1010.6
20260503200959 87 136 3.0 4.0 0.00 0.00 0.00 28 1010.9
20260503200455 88 76 2.0 3.0 0.00 0.00 0.00 27 1010.9
20260503195951 89 105 1.0 1.0 0.00 0.00 0.00 28 1011.0
20260503195449 87 118 2.0 3.0 0.00 0.00 0.00 27 1011.1
20260503194945 87 131 2.0 3.0 0.00 0.00 0.00 26 1011.0
20260503194443 87 52 5.0 6.0 0.00 0.00 0.00 26 1011.1
20260503193938 87 102 3.0 3.0 0.00 0.00 0.00 28 1011.2
20260503193433 87 96 3.0 3.0 0.00 0.00 0.00 29 1011.1
20260503192929 88 112 5.0 7.0 0.00 0.00 0.00 27 1011.2
20260503192426 86 111 0.0 0.0 0.00 0.00 0.00 28 1011.2
20260503191921 86 130 3.0 3.0 0.00 0.00 0.00 29 1011.4
20260503191420 87 92 1.0 2.0 0.00 0.00 0.00 28 1011.3
20260503190915 87 106 4.0 6.0 0.00 0.00 0.00 29 1011.4
20260503190413 86 76 1.0 1.0 0.00 0.00 0.00 31 1011.5
20260503185909 86 138 7.0 9.0 0.00 0.00 0.00 28 1011.5
20260503185406 86 203 4.0 6.0 0.00 0.00 0.00 29 1011.3
20260503184905 85 86 3.0 4.0 0.00 0.00 0.00 31 1011.7
20260503184402 86 123 3.0 6.0 0.00 0.00 0.00 30 1011.6
20260503183858 85 125 4.0 4.0 0.00 0.00 0.00 30 1011.8
20260503183355 85 103 2.0 2.0 0.00 0.00 0.00 32 1011.6
20260503182853 86 154 4.0 7.0 0.00 0.00 0.00 31 1011.8
20260503182351 86 118 2.0 2.0 0.00 0.00 0.00 30 1011.9
20260503181848 85 105 0.0 1.0 0.00 0.00 0.00 32 1011.7
20260503181345 85 149 3.0 3.0 0.00 0.00 0.00 32 1011.9
20260503180842 85 144 3.0 3.0 0.00 0.00 0.00 31 1011.8
20260503180340 83 105 0.0 1.0 0.00 0.00 0.00 34 1011.8
20260503175836 84 87 2.0 2.0 0.00 0.00 0.00 35 1012.1
20260503175334 84 138 4.0 6.0 0.00 0.00 0.00 35 1012.0
20260503174835 82 102 0.0 1.0 0.00 0.00 0.00 38 1012.0
20260503174333 81 112 1.0 1.0 0.00 0.00 0.00 40 1012.1
20260503173828 80 118 2.0 3.0 0.00 0.00 0.00 40 1012.0
20260503173325 80 141 4.0 4.0 0.00 0.00 0.00 41 1012.1
20260503172821 80 148 2.0 2.0 0.00 0.00 0.00 43 1012.2
20260503172319 79 113 2.0 2.0 0.00 0.00 0.00 44 1012.1
20260503171815 80 122 2.0 2.0 0.00 0.00 0.00 44 1012.2
20260503171312 79 92 0.0 0.0 0.00 0.00 0.00 45 1012.3
20260503170809 78 106 0.0 0.0 0.00 0.00 0.00 48 1012.2
20260503170306 78 106 1.0 2.0 0.00 0.00 0.00 46 1012.2
20260503150658 62 107 0.0 0.0 0.00 0.00 0.00 66 1013.0
20260503150154 62 107 0.0 0.0 0.00 0.00 0.00 66 1013.0
20260503140118 54 106 0.0 1.0 0.00 0.00 0.00 82 1013.3
20260503131048 53 112 0.0 0.0 0.00 0.00 0.00 85 1013.0
20260503130545 53 97 0.0 0.0 0.00 0.00 0.00 85 1013.0
20260503110435 55 107 0.0 1.0 0.00 0.00 0.00 85 1013.0
20260503090326 57 94 0.0 1.0 0.00 0.00 0.00 87 1013.1
20260503081254 57 101 0.0 0.0 0.00 0.00 0.00 87 1013.3
20260503080750 58 101 1.0 2.0 0.00 0.00 0.00 86 1013.0
20260503080247 57 88 1.0 1.0 0.00 0.00 0.00 88 1012.9
20260503072724 57 109 0.0 0.0 0.00 0.00 0.00 90 1013.1
20260503072221 58 92 1.0 1.0 0.00 0.00 0.00 89 1012.9
20260503071717 58 65 1.0 1.0 0.00 0.00 0.00 90 1012.9
20260503071214 58 97 0.0 1.0 0.00 0.00 0.00 89 1013.0
20260503070711 58 111 0.0 0.0 0.00 0.00 0.00 89 1012.9
20260503070209 59 126 0.0 0.0 0.00 0.00 0.00 89 1012.8
20260503060133 60 108 0.0 1.0 0.00 0.00 0.00 86 1012.9
20260503055125 60 112 0.0 0.0 0.00 0.00 0.00 87 1013.3
20260503054620 60 105 0.0 0.0 0.00 0.00 0.00 86 1012.8
20260503054118 59 90 0.0 1.0 0.00 0.00 0.00 89 1013.1
20260503053615 59 114 0.0 0.0 0.00 0.00 0.00 89 1013.0
20260503053114 59 107 0.0 0.0 0.00 0.00 0.00 89 1013.1
20260503052610 59 105 0.0 0.0 0.00 0.00 0.00 90 1013.4
20260503052106 59 100 0.0 0.0 0.00 0.00 0.00 89 1013.4
20260503051602 59 59 1.0 1.0 0.00 0.00 0.00 89 1013.5
20260503051100 59 119 0.0 1.0 0.00 0.00 0.00 89 1013.3
20260503050555 59 131 1.0 1.0 0.00 0.00 0.00 89 1013.4
20260503050053 60 72 1.0 1.0 0.00 0.00 0.00 88 1013.3
20260503045550 59 312 2.0 2.0 0.00 0.00 0.00 89 1013.3
20260503045047 59 91 1.0 1.0 0.00 0.00 0.00 89 1013.5
20260503044544 59 85 1.0 1.0 0.00 0.00 0.00 89 1013.5
20260503044041 59 92 0.0 0.0 0.00 0.00 0.00 88 1013.5
20260503043537 59 93 0.0 1.0 0.00 0.00 0.00 88 1013.3
20260503043034 60 139 0.0 0.0 0.00 0.00 0.00 88 1013.5
20260503042531 60 146 1.0 1.0 0.00 0.00 0.00 87 1013.3
20260503042027 60 112 1.0 1.0 0.00 0.00 0.00 87 1013.5
20260503041524 60 117 0.0 0.0 0.00 0.00 0.00 87 1013.4
20260503041022 60 116 0.0 0.0 0.00 0.00 0.00 87 1013.1
20260503040519 61 117 0.0 0.0 0.00 0.00 0.00 87 1013.3
20260503040016 61 112 0.0 0.0 0.00 0.00 0.00 86 1013.0
20260503035513 61 121 0.0 0.0 0.00 0.00 0.00 86 1013.0
20260503035011 62 106 0.0 0.0 0.00 0.00 0.00 86 1012.6
20260503034508 62 120 0.0 0.0 0.00 0.00 0.00 85 1012.6
20260503034004 62 113 0.0 0.0 0.00 0.00 0.00 84 1012.6
20260503033501 63 144 1.0 1.0 0.00 0.00 0.00 83 1012.4
20260503033000 63 112 0.0 0.0 0.00 0.00 0.00 82 1012.2
20260503032458 63 178 1.0 1.0 0.00 0.00 0.00 82 1012.0
20260503031955 64 134 0.0 0.0 0.00 0.00 0.00 79 1012.0
20260503031453 65 113 0.0 0.0 0.00 0.00 0.00 78 1011.8
20260503030949 65 108 0.0 0.0 0.00 0.00 0.00 77 1011.8
20260503030446 65 110 0.0 0.0 0.00 0.00 0.00 77 1011.8
20260503025943 65 114 0.0 0.0 0.00 0.00 0.00 77 1011.7
20260503025440 65 123 0.0 0.0 0.00 0.00 0.00 78 1011.7
20260503024938 66 119 0.0 0.0 0.00 0.00 0.00 77 1011.5
20260503024434 66 127 0.0 0.0 0.00 0.00 0.00 76 1011.5
20260503023931 67 116 0.0 0.0 0.00 0.00 0.00 74 1011.4
20260503023428 67 115 0.0 0.0 0.00 0.00 0.00 73 1011.2
20260503022925 68 115 0.0 0.0 0.00 0.00 0.00 71 1011.3
20260503022420 68 116 0.0 0.0 0.00 0.00 0.00 71 1011.4
20260503021916 68 113 0.0 0.0 0.00 0.00 0.00 69 1011.3
20260503021412 68 116 0.0 0.0 0.00 0.00 0.00 70 1011.1
20260503020910 68 118 0.0 0.0 0.00 0.00 0.00 69 1011.0
20260503020407 68 108 0.0 0.0 0.00 0.00 0.00 69 1011.1
20260503015903 69 112 1.0 1.0 0.00 0.00 0.00 68 1011.0
20260503015401 69 110 0.0 0.0 0.00 0.00 0.00 68 1011.0
20260503014856 69 107 1.0 2.0 0.00 0.00 0.00 67 1011.0
20260503014354 69 99 0.0 0.0 0.00 0.00 0.00 67 1011.1
20260503013852 69 121 2.0 2.0 0.00 0.00 0.00 67 1011.0
20260503013348 70 122 2.0 2.0 0.00 0.00 0.00 65 1011.0
20260503012845 70 107 1.0 1.0 0.00 0.00 0.00 65 1011.1
20260503012343 71 104 0.0 0.0 0.00 0.00 0.00 64 1010.7
20260503011840 72 99 0.0 0.0 0.00 0.00 0.00 62 1010.8
20260503011337 72 113 0.0 0.0 0.00 0.00 0.00 61 1010.7
20260503010833 72 93 0.0 1.0 0.00 0.00 0.00 61 1010.7
20260503010330 71 103 0.0 0.0 0.00 0.00 0.00 62 1010.8
20260503005827 71 109 1.0 2.0 0.00 0.00 0.00 61 1010.8
20260503005325 71 108 1.0 1.0 0.00 0.00 0.00 61 1010.5
20260503004820 70 131 2.0 3.0 0.00 0.00 0.00 62 1010.8
20260503004318 70 120 1.0 1.0 0.00 0.00 0.00 62 1010.7
20260503003816 71 112 2.0 2.0 0.00 0.00 0.00 62 1010.6
20260503003312 71 107 1.0 1.0 0.00 0.00 0.00 61 1010.5
20260503002809 72 123 4.0 4.0 0.00 0.00 0.00 60 1010.7
20260503002307 72 101 1.0 1.0 0.00 0.00 0.00 60 1010.6
20260503001803 73 106 1.0 1.0 0.00 0.00 0.00 59 1010.5
20260503001259 72 113 0.0 0.0 0.00 0.00 0.00 59 1010.6
20260503000757 73 105 1.0 1.0 0.00 0.00 0.00 59 1010.5
20260503000253 72 112 1.0 1.0 0.00 0.00 0.00 59 1010.7
20260502235751 72 108 1.0 1.0 0.00 0.00 0.00 59 1010.8
20260502235249 72 103 0.0 1.0 0.00 0.00 0.00 58 1010.8
20260502234744 71 118 1.0 2.0 0.00 0.00 0.00 58 1010.9
20260502234242 72 116 2.0 3.0 0.00 0.00 0.00 58 1010.8
20260502233738 71 105 1.0 1.0 0.00 0.00 0.00 59 1010.7
20260502233235 71 113 1.0 1.0 0.00 0.00 0.00 58 1010.9
20260502232730 71 176 2.0 3.0 0.00 0.00 0.00 58 1011.1
20260502232228 72 141 2.0 2.0 0.00 0.00 0.00 56 1011.1
20260502231725 73 113 1.0 1.0 0.00 0.00 0.00 56 1011.2
20260502231222 73 144 2.0 3.0 0.00 0.00 0.00 56 1011.4
20260502230721 73 92 1.0 2.0 0.00 0.00 0.00 58 1011.4
20260502230219 73 112 1.0 2.0 0.00 0.00 0.00 58 1011.5
20260502225714 72 131 1.0 1.0 0.00 0.00 0.00 58 1011.3
20260502225212 73 149 2.0 2.0 0.00 0.00 0.00 57 1011.4
20260502224708 71 125 2.0 2.0 0.00 0.00 0.00 57 1011.6
20260502224205 72 174 2.0 3.0 0.00 0.00 0.00 57 1011.7
20260502223702 71 124 2.0 2.0 0.00 0.00 0.00 59 1011.8
20260502223200 70 101 1.0 1.0 0.00 0.00 0.00 61 1012.1
20260502222658 69 115 2.0 2.0 0.00 0.00 0.00 61 1012.1
20260502222154 70 112 1.0 2.0 0.00 0.00 0.00 60 1012.3